| time (UTC) | temp F | wind direction | speed MPH | gust MPH | rain 1hr in | rain 24hr in | rain mn in | humidity % | barometer mb |
| 20260905051603 | 56 | 307 | 14.0 | 25.0 | 0.00 | 0.72 | 0.16 | 84 | 998.4 |
| 20260905050058 | 56 | 267 | 13.0 | 27.0 | 0.00 | 0.72 | 0.16 | 86 | 998.1 |
| 20260905044556 | 57 | 271 | 12.0 | 21.0 | 0.01 | 0.72 | 0.16 | 83 | 998.1 |
| 20260905043058 | 57 | 265 | 14.0 | 22.0 | 0.01 | 0.72 | 0.16 | 81 | 998.0 |
| 20260905041554 | 57 | 285 | 10.0 | 21.0 | 0.01 | 0.72 | 0.16 | 81 | 997.8 |
| 20260905040058 | 57 | 283 | 13.0 | 21.0 | 0.01 | 0.72 | 0.16 | 82 | 997.8 |
| 20260905034552 | 57 | 259 | 11.0 | 18.0 | 0.00 | 0.71 | 0.15 | 81 | 997.7 |
| 20260905033052 | 57 | 267 | 12.0 | 23.0 | 0.00 | 0.71 | 0.15 | 83 | 997.8 |
| 20260905031650 | 57 | 280 | 14.0 | 21.0 | 0.00 | 0.71 | 0.15 | 84 | 997.7 |
| 20260905030101 | 57 | 248 | 16.0 | 24.0 | 0.00 | 0.71 | 0.15 | 85 | 997.7 |
| 20260905024548 | 57 | 241 | 15.0 | 22.0 | 0.00 | 0.71 | 0.15 | 86 | 997.6 |
| 20260905023047 | 57 | 232 | 16.0 | 22.0 | 0.00 | 0.71 | 0.15 | 84 | 997.7 |
| 20260905021546 | 57 | 244 | 14.0 | 22.0 | 0.00 | 0.71 | 0.15 | 84 | 997.8 |
| 20260905020049 | 57 | 237 | 12.0 | 18.0 | 0.00 | 0.71 | 0.15 | 85 | 997.8 |
| 20260905014545 | 57 | 247 | 15.0 | 25.0 | 0.02 | 0.71 | 0.15 | 83 | 997.8 |
| 20260905013048 | 57 | 245 | 15.0 | 21.0 | 0.04 | 0.71 | 0.15 | 84 | 997.7 |
| 20260905011622 | 57 | 253 | 15.0 | 21.0 | 0.04 | 0.71 | 0.15 | 84 | 997.7 |
| 20260905010041 | 57 | 246 | 11.0 | 20.0 | 0.04 | 0.71 | 0.15 | 85 | 997.7 |
| 20260905004539 | 56 | 253 | 13.0 | 19.0 | 0.02 | 0.69 | 0.13 | 86 | 997.8 |
| 20260905003039 | 56 | 269 | 11.0 | 21.0 | 0.00 | 0.67 | 0.11 | 87 | 997.8 |
| 20260905001550 | 57 | 296 | 11.0 | 16.0 | 0.00 | 0.67 | 0.11 | 85 | 997.7 |
| 20260905000042 | 56 | 250 | 11.0 | 19.0 | 0.10 | 0.67 | 0.11 | 86 | 997.7 |
| 20260904234538 | 57 | 244 | 15.0 | 20.0 | 0.11 | 0.67 | 0.11 | 86 | 997.6 |
| 20260904233035 | 57 | 241 | 14.0 | 21.0 | 0.11 | 0.67 | 0.11 | 87 | 997.6 |
| 20260904231530 | 56 | 246 | 5.0 | 13.0 | 0.11 | 0.67 | 0.11 | 89 | 997.5 |
| 20260904230027 | 55 | 313 | 0.0 | 3.0 | 0.01 | 0.56 | 0.01 | 91 | 997.6 |
| 20260904224525 | 55 | 331 | 2.0 | 4.0 | 0.00 | 0.56 | 0.00 | 90 | 997.8 |
| 20260904223024 | 55 | 322 | 2.0 | 5.0 | 0.01 | 0.56 | 0.00 | 90 | 997.9 |
| 20260904221522 | 55 | 259 | 3.0 | 8.0 | 0.01 | 0.56 | 0.00 | 91 | 998.0 |
| 20260904220019 | 55 | 274 | 3.0 | 8.0 | 0.01 | 0.56 | 0.00 | 92 | 997.9 |
| 20260904214517 | 55 | 195 | 0.0 | 3.0 | 0.06 | 0.56 | 0.56 | 92 | 997.8 |
| 20260904213017 | 55 | 351 | 0.0 | 3.0 | 0.06 | 0.55 | 0.55 | 92 | 997.7 |
| 20260904211516 | 55 | 42 | 2.0 | 5.0 | 0.08 | 0.55 | 0.55 | 92 | 997.7 |
| 20260904210016 | 55 | 107 | 2.0 | 6.0 | 0.09 | 0.55 | 0.55 | 92 | 997.9 |
| 20260904204514 | 55 | 130 | 3.0 | 9.0 | 0.03 | 0.50 | 0.50 | 92 | 997.7 |
| 20260904203018 | 55 | 79 | 3.0 | 10.0 | 0.02 | 0.49 | 0.49 | 91 | 997.8 |
| 20260904201513 | 55 | 67 | 2.0 | 7.0 | 0.01 | 0.47 | 0.47 | 91 | 997.7 |
| 20260904200015 | 55 | 92 | 3.0 | 8.0 | 0.00 | 0.46 | 0.46 | 91 | 997.9 |
| 20260904194512 | 56 | 53 | 0.0 | 1.0 | 0.00 | 0.46 | 0.46 | 91 | 997.8 |
| 20260904193012 | 56 | 355 | 0.0 | 2.0 | 0.00 | 0.46 | 0.46 | 90 | 997.7 |
| 20260904191511 | 56 | 5 | 2.0 | 6.0 | 0.00 | 0.46 | 0.46 | 91 | 997.7 |
| 20260904190011 | 56 | 294 | 2.0 | 4.0 | 0.00 | 0.46 | 0.46 | 91 | 997.6 |
| 20260904184509 | 55 | 15 | 0.0 | 3.0 | 0.02 | 0.49 | 0.46 | 91 | 997.6 |
| 20260904183009 | 55 | 67 | 0.0 | 1.0 | 0.02 | 0.49 | 0.46 | 90 | 997.4 |
| 20260904181533 | 55 | 5 | 0.0 | 0.0 | 0.02 | 0.49 | 0.46 | 90 | 997.1 |
| 20260904180010 | 55 | 145 | 1.0 | 3.0 | 0.01 | 0.48 | 0.46 | 90 | 997.0 |
| 20260904174507 | 56 | 13 | 0.0 | 0.0 | 0.01 | 0.48 | 0.45 | 90 | 996.8 |
| 20260904173010 | 56 | 335 | 0.0 | 0.0 | 0.02 | 0.48 | 0.45 | 89 | 996.9 |
| 20260904171505 | 56 | 331 | 2.0 | 6.0 | 0.02 | 0.48 | 0.45 | 89 | 996.8 |
| 20260904170006 | 55 | 329 | 3.0 | 8.0 | 0.02 | 0.48 | 0.45 | 88 | 996.9 |
| 20260904164505 | 55 | 338 | 1.0 | 9.0 | 0.09 | 0.50 | 0.44 | 89 | 996.6 |
| 20260904163005 | 56 | 317 | 5.0 | 11.0 | 0.35 | 0.49 | 0.43 | 90 | 996.6 |
| 20260904161504 | 56 | 310 | 2.0 | 5.0 | 0.36 | 0.49 | 0.43 | 90 | 996.6 |
| 20260904160003 | 56 | 154 | 1.0 | 8.0 | 0.35 | 0.48 | 0.43 | 90 | 996.3 |
| 20260904154502 | 57 | 168 | 3.0 | 10.0 | 0.28 | 0.43 | 0.35 | 89 | 996.4 |
| 20260904151604 | 58 | 105 | 3.0 | 7.0 | 0.00 | 0.15 | 0.07 | 87 | 996.2 |
| 20260904150058 | 58 | 180 | 2.0 | 5.0 | 0.00 | 0.15 | 0.07 | 86 | 996.4 |
| 20260904144556 | 58 | 134 | 3.0 | 6.0 | 0.00 | 0.17 | 0.07 | 87 | 996.4 |
| 20260904143119 | 58 | 154 | 3.0 | 9.0 | 0.00 | 0.17 | 0.07 | 88 | 996.3 |
| 20260904141605 | 58 | 222 | 7.0 | 11.0 | 0.00 | 0.17 | 0.07 | 87 | 996.3 |
| 20260904140055 | 58 | 226 | 9.0 | 12.0 | 0.00 | 0.17 | 0.07 | 85 | 996.3 |
| 20260904134559 | 59 | 224 | 10.0 | 17.0 | 0.00 | 0.17 | 0.07 | 85 | 996.4 |
| 20260904133053 | 59 | 234 | 13.0 | 17.0 | 0.00 | 0.17 | 0.07 | 86 | 996.3 |
| 20260904131551 | 60 | 229 | 8.0 | 11.0 | 0.00 | 0.17 | 0.07 | 84 | 996.4 |
| 20260904130048 | 60 | 232 | 11.0 | 13.0 | 0.00 | 0.17 | 0.07 | 82 | 996.7 |
| 20260904124546 | 60 | 198 | 4.0 | 7.0 | 0.00 | 0.17 | 0.07 | 83 | 996.8 |
| 20260904123043 | 60 | 196 | 4.0 | 7.0 | 0.01 | 0.17 | 0.07 | 83 | 997.0 |
| 20260904121541 | 60 | 186 | 3.0 | 8.0 | 0.01 | 0.17 | 0.07 | 84 | 997.2 |
| 20260904120047 | 60 | 187 | 6.0 | 9.0 | 0.01 | 0.17 | 0.07 | 83 | 997.2 |
| 20260904114538 | 60 | 182 | 4.0 | 7.0 | 0.02 | 0.18 | 0.07 | 83 | 997.3 |
| 20260904113042 | 59 | 136 | 1.0 | 4.0 | 0.02 | 0.17 | 0.06 | 86 | 997.4 |
| 20260904111535 | 59 | 145 | 2.0 | 5.0 | 0.02 | 0.17 | 0.06 | 86 | 997.6 |
| 20260904110032 | 59 | 145 | 3.0 | 5.0 | 0.02 | 0.17 | 0.06 | 86 | 997.7 |
| 20260904104547 | 59 | 211 | 5.0 | 9.0 | 0.06 | 0.23 | 0.06 | 85 | 998.0 |
| 20260904103027 | 59 | 36 | 0.0 | 0.0 | 0.04 | 0.21 | 0.04 | 86 | 998.1 |
| 20260904101526 | 59 | 93 | 1.0 | 9.0 | 0.04 | 0.21 | 0.04 | 85 | 998.2 |
| 20260904100030 | 59 | 238 | 1.0 | 6.0 | 0.04 | 0.21 | 0.04 | 83 | 998.3 |
| 20260904094532 | 60 | 76 | 4.0 | 9.0 | 0.00 | 0.27 | 0.00 | 82 | 998.3 |
| 20260904093023 | 59 | 115 | 3.0 | 8.0 | 0.00 | 0.27 | 0.00 | 82 | 998.5 |
| 20260904091521 | 60 | 104 | 4.0 | 8.0 | 0.00 | 0.27 | 0.00 | 81 | 998.6 |
| 20260904090020 | 60 | 104 | 3.0 | 8.0 | 0.00 | 0.27 | 0.00 | 82 | 998.6 |
| 20260904084519 | 60 | 114 | 2.0 | 8.0 | 0.00 | 0.30 | 0.00 | 83 | 998.8 |
| 20260904083019 | 60 | 98 | 6.0 | 9.0 | 0.00 | 0.30 | 0.00 | 82 | 998.9 |
| 20260904081513 | 59 | 97 | 4.0 | 8.0 | 0.00 | 0.30 | 0.00 | 84 | 999.0 |
| 20260904080017 | 59 | 86 | 3.0 | 6.0 | 0.00 | 0.30 | 0.00 | 82 | 999.2 |
| 20260904074510 | 60 | 104 | 2.0 | 7.0 | 0.00 | 0.30 | 0.00 | 83 | 999.4 |
| 20260904073011 | 59 | 88 | 2.0 | 7.0 | 0.00 | 0.30 | 0.00 | 83 | 999.5 |
| 20260904071505 | 59 | 132 | 2.0 | 7.0 | 0.00 | 0.30 | 0.00 | 84 | 999.6 |
| 20260904070008 | 58 | 125 | 3.0 | 7.0 | 0.00 | 0.30 | 0.00 | 85 | 999.7 |
| 20260904064504 | 58 | 94 | 2.0 | 7.0 | 0.00 | 0.30 | 0.00 | 86 | 999.8 |
| 20260904063101 | 57 | 123 | 3.0 | 6.0 | 0.00 | 0.30 | 0.00 | 88 | 999.9 |
| 20260904061556 | 56 | 123 | 1.0 | 6.0 | 0.00 | 0.30 | 0.00 | 90 | 1000.1 |
| 20260904060055 | 55 | 120 | 2.0 | 5.0 | 0.00 | 0.30 | 0.00 | 91 | 1000.4 |
| 20260904054554 | 55 | 113 | 1.0 | 4.0 | 0.00 | 0.30 | 0.00 | 91 | 1000.5 |
| 20260904053058 | 54 | 102 | 0.0 | 0.0 | 0.00 | 0.30 | 0.00 | 91 | 1000.6 |